Location: *
(46.1866°S, 178.5290°W)
Time: 08:05:41
(UTC+00:00)

Cosmos 1655 Rocket - Visible Passes

Search period start: 28 September 2021 00:00
Search period end: 08 October 2021 00:00
Orbit: 969 x 1007 km, 82.9° (Epoch: 27 September)

Date Brightness Start Highest point End Pass type
(mag) Time Alt. Az. Time Alt. Az. Time Alt. Az.
28 Sep 5.8 14:05:17 14° NE 14:09:24 27° E 14:14:38 10° SSE visible
28 Sep 4.2 15:50:15 20° NNW 15:54:38 55° WSW 16:01:00 10° S visible
29 Sep 4.8 14:34:48 25° NNE 14:38:17 49° E 14:44:29 10° SSE visible
29 Sep 4.9 16:19:45 15° NW 16:24:11 31° WSW 16:29:53 10° S visible
30 Sep 6.4 13:19:19 10° ENE 13:22:46 15° ESE 13:26:14 10° SE visible
30 Sep 4.0 15:04:15 33° N 15:07:25 88° E 15:13:56 10° S visible
30 Sep 5.5 16:49:49 10° WNW 16:54:00 18° WSW 16:58:15 10° SSW visible
01 Oct 5.7 13:48:42 21° ENE 13:51:28 28° E 13:56:49 10° SSE visible
01 Oct 4.2 15:33:39 29° NW 15:36:46 53° WSW 15:43:06 10° S visible
02 Oct 4.7 14:18:04 35° NE 14:20:23 51° E 14:26:37 10° SSE visible
02 Oct 4.9 16:03:02 20° WNW 16:06:20 30° WSW 16:11:57 10° S visible
03 Oct 6.3 13:02:28 13° ENE 13:04:50 16° ESE 13:08:31 10° SE visible
03 Oct 4.0 14:47:25 46° N 14:49:31 89° W 14:56:03 10° S visible
03 Oct 5.6 16:32:22 11° W 16:36:10 17° WSW 16:40:16 10° SSW visible
04 Oct 5.5 13:31:46 26° ENE 13:33:33 30° E 13:39:00 10° SSE visible
04 Oct 4.3 15:16:43 37° NW 15:18:53 50° WSW 15:25:12 10° S visible
05 Oct 4.6 14:01:03 45° NE 14:02:28 54° E 14:08:46 10° SSE visible
05 Oct 5.0 15:45:59 22° WNW 15:48:28 29° WSW 15:54:01 10° S visible
06 Oct 6.1 12:45:20 15° E 12:46:53 17° ESE 12:50:46 10° SE visible
06 Oct 4.0 14:30:17 59° NNW 14:31:38 86° W 14:38:10 10° S visible
06 Oct 5.7 16:15:13 12° W 16:18:19 16° WSW 16:22:15 10° SSW visible
07 Oct 5.4 13:14:34 29° ENE 13:15:38 31° E 13:21:10 10° SSE visible
07 Oct 4.4 14:59:31 41° WNW 15:01:01 48° WSW 15:07:17 10° S visible
